Theta_e
319 319 319 319 318 318 318 318 318 319 319 319 319 318 318 319 319 319 320 319 319 319 320 321 323 324 325 315 314 339 360 362 352 348 345 342 337 335 330 332 334 330 331 332 334 336 334
318 318 318 318 318 318 318 318 318 318 318 318 318 318 318 318 318 319 319 318 318 318 319 321 323 325 320 309 326 338 337 348 345 344 346 345 338 339 335 332 331 333 332 331 332 335 335
317 317 317 318 317 317 318 318 318 317 317 317 318 318 317 318 318 318 318 317 317 318 319 321 324 327 315 314 321 345 339 341 344 342 344 346 344 342 337 333 337 334 327 330 332 333 332
317 317 317 317 316 316 317 317 318 317 317 317 317 317 317 317 317 317 316 315 317 322 322 322 325 324 313 319 337 342 343 339 344 344 347 349 348 342 338 339 334 328 327 322 328 331 332
317 317 316 316 316 316 317 317 317 317 317 316 316 316 316 317 317 316 315 315 319 325 325 325 324 317 312 321 319 337 339 333 340 341 341 340 346 339 337 330 325 326 320 321 324 330 329
318 317 317 316 316 315 317 318 317 317 317 317 317 316 316 316 316 315 314 314 323 325 326 328 323 312 314 314 319 334 333 333 335 336 334 335 336 332 331 326 315 319 320 321 321 327 328
317 317 317 316 315 315 316 317 317 317 317 317 316 316 316 316 315 313 314 316 318 316 317 312 312 312 314 319 322 329 330 329 329 330 323 333 325 322 324 328 327 325 323 321 325 328 326
316 316 316 316 317 316 316 317 317 317 317 316 316 316 315 314 313 312 315 309 311 312 312 316 312 313 317 318 312 322 329 323 321 318 323 326 321 325 331 329 326 324 321 321 325 327 326
316 316 316 316 316 316 316 316 317 317 317 317 316 315 314 312 312 312 313 310 317 317 311 312 316 314 313 316 313 316 323 324 320 317 320 319 321 326 325 326 323 323 320 320 320 325 328
315 315 315 316 315 315 315 316 316 317 317 316 316 315 312 310 309 315 311 315 317 318 308 310 311 314 316 316 311 318 325 327 322 316 320 319 325 323 322 323 324 318 323 322 322 321 315
314 314 315 315 316 315 315 315 315 316 316 316 315 314 311 310 313 312 314 319 318 316 298 309 311 320 318 313 314 313 321 326 319 318 319 317 319 320 320 322 325 320 325 322 322 320 319
314 314 313 314 314 315 315 315 315 315 315 315 314 311 311 313 314 315 317 316 316 305 297 306 312 311 311 312 313 315 315 326 324 320 322 318 326 323 321 324 326 326 324 323 322 319 311
313 314 313 313 314 315 315 315 315 315 315 314 312 310 309 314 313 317 317 314 305 300 308 307 309 311 310 309 310 311 310 312 311 312 313 315 319 324 326 321 325 325 320 311 309 310 310
313 313 314 314 314 314 315 315 315 315 314 312 309 307 311 312 318 316 315 308 300 304 305 311 311 311 308 310 309 310 309 307 312 313 312 310 308 318 324 322 319 321 320 311 302 306 310
312 313 314 314 314 314 315 315 315 314 313 311 308 315 314 317 316 315 310 302 304 305 309 308 309 308 307 309 309 308 308 307 310 313 308 307 308 319 322 325 325 320 317 322 313 313 310
312 312 312 313 314 314 314 315 314 314 313 310 313 314 315 316 317 312 307 301 307 309 309 309 306 309 307 308 307 307 307 311 309 313 315 309 304 313 318 323 324 322 324 313 313 304 304
312 312 312 313 313 314 314 314 314 313 311 310 312 312 314 318 315 308 303 306 308 311 310 307 305 307 309 308 308 307 307 309 311 311 314 311 310 310 317 316 315 318 317 318 316 314 306
312 312 313 313 313 313 314 314 313 312 309 310 312 309 315 316 304 305 305 308 304 310 311 309 308 307 308 310 308 308 307 310 313 313 308 311 309 306 310 316 320 320 318 317 310 308 312
312 312 313 313 313 313 313 313 313 311 310 311 311 310 314 313 301 302 307 308 309 308 309 308 307 309 310 309 307 309 310 313 313 312 310 311 307 304 307 312 314 313 317 318 318 315 311
312 312 311 313 313 313 313 313 312 312 310 312 311 307 308 310 310 306 304 306 306 310 309 310 309 310 309 309 311 310 309 311 313 313 324 315 309 307 304 306 311 308 311 316 316 311 311
311 311 311 312 313 312 313 313 313 312 310 311 313 310 309 301 305 307 307 306 305 306 310 311 309 309 308 307 308 309 312 312 313 315 314 312 306 309 309 309 309 309 309 310 311 314 311
311 311 311 312 313 312 313 313 314 311 309 313 309 309 312 310 306 306 301 305 305 307 308 306 307 309 310 308 310 310 313 313 311 313 313 314 308 310 309 311 310 307 308 309 310 311 312
311 311 311 311 312 312 312 314 314 311 309 311 314 315 309 303 308 305 306 307 307 309 309 311 310 310 309 310 312 313 314 315 316 314 313 311 309 308 305 310 309 304 308 309 310 312 312
310 310 310 311 312 312 313 314 315 313 310 311 312 311 308 303 307 307 306 308 307 309 308 309 311 311 311 314 313 313 313 313 314 314 316 312 311 310 307 308 299 310 314 314 312 313 315
311 311 311 312 312 312 313 314 315 314 312 312 314 311 309 303 307 306 307 308 309 309 308 309 310 312 314 312 310 308 308 309 310 312 312 314 313 308 304 304 308 309 312 311 310 311 318
312 312 312 312 312 312 313 314 314 314 312 313 315 314 311 305 305 307 307 307 308 308 308 309 313 315 312 312 309 304 302 307 305 307 312 312 312 309 308 302 300 310 312 317 315 308 317
311 311 312 311 312 313 313 314 314 313 312 312 316 314 311 305 309 309 308 308 309 309 309 310 310 312 313 309 305 304 304 308 304 305 307 307 309 305 305 304 308 311 315 317 306 310 318
311 311 312 311 312 313 313 314 313 313 312 311 314 316 310 307 309 309 309 309 310 310 307 308 309 310 311 306 306 306 305 307 306 308 308 308 306 305 306 304 302 314 315 312 312 318 320
312 312 312 312 313 313 313 313 313 312 312 312 311 317 315 309 308 310 311 311 310 310 310 310 309 308 310 310 309 310 305 309 307 303 309 304 308 308 309 309 313 315 313 314 316 318 319
Wind_Speed
12 12 12 12 13 14 13 13 14 14 14 15 15 15 16 16 16 16 15 15 14 15 14 11 12 12 8 8 2 7 8 11 14 10 8 4 4 1 4 5 1 2 2 2 3 6 6
11 12 12 12 13 14 15 14 14 14 14 15 15 16 16 16 16 16 16 15 16 15 14 11 10 11 7 9 5 3 11 16 11 12 7 4 3 2 4 2 1 2 2 1 6 8 6
10 11 11 11 12 14 15 15 15 14 14 15 16 16 17 17 17 17 17 17 17 16 13 10 7 6 8 1 2 4 14 16 10 8 8 3 1 7 1 3 3 3 5 7 4 6 3
11 11 12 12 12 13 15 15 15 15 14 15 15 17 18 18 18 18 17 17 16 12 9 6 5 7 6 4 2 7 12 13 11 6 7 2 3 4 2 1 6 4 4 4 5 5 3
10 12 11 11 12 13 14 15 15 15 14 14 15 16 17 18 19 19 17 17 15 4 1 5 7 7 4 4 8 10 14 14 14 8 4 5 8 2 5 7 8 6 3 3 5 4 1
13 10 11 12 12 13 13 14 15 14 14 14 14 15 17 18 17 19 20 16 2 5 6 5 4 7 7 5 9 11 11 13 13 11 7 9 8 9 7 9 4 6 4 1 2 4 9
15 15 14 12 11 12 14 14 15 15 15 15 15 15 16 17 17 19 15 5 8 8 9 6 5 3 4 7 9 12 16 17 11 13 12 13 11 12 9 1 3 1 4 6 2 2 7
13 14 14 15 14 12 12 14 15 15 15 16 15 15 16 17 18 15 8 6 6 7 6 15 7 5 3 2 9 13 17 14 15 16 14 9 14 9 7 4 5 4 7 4 1 1 7
13 13 13 14 15 15 14 15 15 15 15 15 15 15 17 18 18 5 6 7 4 6 8 9 10 13 10 8 10 21 21 19 17 19 18 17 8 6 9 10 8 7 7 6 7 3 8
14 13 14 14 13 15 15 16 16 15 15 15 15 15 17 19 7 3 5 4 5 5 7 13 10 9 11 9 10 12 21 16 12 19 18 17 7 6 16 11 6 6 4 3 4 6 6
14 15 15 15 15 14 15 15 16 16 16 16 16 15 13 7 11 6 6 3 4 6 8 9 8 7 11 15 14 13 19 18 17 16 12 14 12 14 10 9 6 3 2 3 2 8 7
15 13 16 15 15 15 15 15 16 16 17 17 16 16 11 6 5 8 3 6 6 8 8 8 8 12 16 19 9 13 20 13 14 18 16 16 8 11 17 15 7 0 7 8 7 8 11
16 15 14 16 15 14 15 16 16 17 17 17 16 14 7 5 2 1 4 6 8 10 5 9 9 12 18 17 16 17 22 23 16 17 18 17 13 8 7 8 9 11 12 10 6 9 2
16 17 15 14 15 16 16 16 17 18 19 19 19 17 8 10 5 7 7 9 11 4 8 3 5 10 16 16 19 17 21 23 25 20 13 15 17 20 11 13 12 15 12 8 5 5 5
16 16 16 16 15 17 18 18 17 19 20 19 23 5 4 5 10 6 10 14 8 4 4 7 8 12 11 15 11 17 19 23 25 21 16 16 14 15 16 14 7 10 12 5 11 14 9
15 16 17 16 16 17 18 19 19 20 21 22 5 4 4 4 12 8 10 15 5 3 3 6 12 13 15 17 15 19 18 19 25 23 19 7 9 14 14 16 9 13 3 9 12 11 10
15 16 16 15 15 16 18 19 20 21 23 17 5 6 6 6 9 9 13 15 6 6 4 4 4 7 11 15 19 20 17 4 22 25 22 18 11 14 13 17 19 12 13 12 12 6 10
16 15 17 15 15 15 17 18 20 20 23 9 5 5 4 10 9 11 15 19 0 9 7 3 3 4 8 12 17 18 18 18 16 17 23 20 11 13 16 18 19 16 19 20 12 16 9
17 16 16 16 14 14 17 18 18 18 15 7 4 4 7 6 9 10 11 15 13 9 9 5 3 2 1 8 12 14 16 7 10 18 17 17 11 13 14 14 8 15 17 15 15 15 12
16 16 17 16 15 15 17 17 18 16 15 6 5 6 6 7 6 11 17 15 17 12 11 7 7 5 5 7 6 13 13 6 11 15 0 16 16 16 12 13 16 19 18 20 20 15 14
16 17 17 17 16 15 16 17 19 16 14 6 4 1 5 9 12 10 12 9 16 16 12 8 8 13 7 7 7 10 16 11 8 5 8 16 18 17 15 17 15 14 19 20 20 20 21
17 17 18 17 16 16 16 17 15 17 20 6 5 5 2 4 5 12 8 13 15 16 8 12 12 12 12 11 3 11 10 13 9 9 10 17 14 10 18 21 20 16 18 18 20 23 23
15 15 17 16 16 15 15 16 13 13 16 4 2 2 5 5 7 13 11 10 11 5 6 6 10 7 12 4 2 6 6 4 4 10 11 12 11 7 13 16 17 15 17 18 16 17 14
14 14 15 15 15 15 16 14 13 9 9 3 3 5 5 5 7 9 8 9 8 7 2 4 7 9 7 3 4 6 5 4 3 4 4 9 9 5 3 5 12 11 2 15 22 18 18
13 13 15 16 17 16 17 14 14 7 7 6 3 5 4 6 4 6 8 10 5 5 6 2 5 4 4 6 8 8 9 7 6 2 6 7 7 7 7 11 10 12 6 4 7 7 17
15 15 16 16 16 16 16 14 13 7 8 7 2 4 5 7 3 5 5 4 8 10 8 4 3 2 5 4 7 9 10 10 9 8 5 8 7 8 7 11 16 15 6 6 4 8 14
15 14 14 14 16 16 12 13 11 10 8 8 1 4 5 6 4 5 2 2 3 3 5 4 1 4 5 5 8 7 8 4 7 11 7 8 8 12 12 12 3 7 7 1 11 6 15
13 13 14 14 16 16 10 10 7 9 9 7 2 3 6 4 4 3 5 3 1 3 5 5 5 5 4 6 5 4 6 5 5 4 2 7 7 7 11 14 14 12 4 5 8 9 13
10 12 13 14 16 16 8 8 8 9 10 9 3 0 4 6 7 4 5 5 4 7 6 3 5 5 6 3 1 2 4 2 6 7 4 4 6 7 8 7 7 10 12 7 9 10 14
Wind_Direction
14 13 9 15 15 10 2 358 355 353 349 348 347 344 343 342 340 338 338 334 327 319 313 313 310 313 276 224 75 89 153 159 174 193 194 202 259 356 72 108 134 299 28 298 181 167 158
14 10 6 5 4 7 4 359 353 352 348 346 345 342 340 340 337 335 335 331 321 311 303 300 299 302 253 237 104 139 168 171 185 194 187 204 8 328 80 102 283 358 318 313 145 164 160
18 5 4 5 0 1 359 357 354 350 347 345 343 340 338 337 335 332 333 328 316 303 290 282 276 273 252 317 37 153 176 180 178 205 191 127 73 261 178 167 16 297 157 132 130 157 135
13 10 3 3 0 354 353 352 351 349 346 344 342 339 336 334 332 329 330 328 319 304 282 254 240 238 258 85 107 166 168 172 190 196 247 136 233 288 274 212 191 220 241 194 110 184 133
19 4 8 360 0 349 346 346 346 346 344 342 340 337 333 331 329 324 326 326 314 318 222 192 223 249 213 146 193 165 182 171 175 175 183 218 241 287 219 232 190 200 65 158 165 201 246
12 6 2 5 358 351 341 342 343 343 341 338 337 335 331 328 327 323 320 298 264 255 210 231 273 227 198 188 142 159 187 171 170 181 184 201 219 229 210 216 237 134 202 101 328 133 242
7 1 358 353 354 352 337 341 343 341 341 338 336 333 327 326 325 324 315 220 206 180 210 250 173 310 155 104 159 176 174 174 192 194 203 199 218 217 207 128 103 252 283 286 274 295 272
6 1 356 352 352 344 337 344 339 336 336 335 332 331 326 328 325 316 271 253 17 359 281 211 218 250 242 292 163 173 177 184 188 197 213 186 227 224 118 179 232 261 280 283 304 120 253
3 359 358 354 349 346 348 341 336 331 329 329 328 329 330 328 323 258 280 262 324 298 258 157 199 218 198 212 208 176 195 207 195 206 200 220 203 164 206 199 234 227 296 323 303 318 239
358 356 355 351 353 343 339 335 332 328 327 325 325 328 333 326 283 2 244 169 295 272 265 154 189 186 186 211 219 189 201 193 208 215 206 231 177 228 211 226 239 261 61 281 275 275 321
358 359 354 350 348 346 337 331 327 325 323 323 322 326 328 336 322 242 45 174 296 227 256 115 141 113 163 194 120 186 195 213 221 210 201 205 225 210 211 210 197 336 322 305 318 274 310
354 357 351 344 341 343 335 330 327 323 320 319 317 325 327 208 225 268 265 296 216 224 234 154 139 174 170 204 187 137 185 225 243 222 201 243 203 239 231 230 209 170 227 228 242 269 258
353 350 350 341 341 336 335 330 327 322 319 315 311 310 271 292 349 105 230 206 205 245 122 162 184 181 196 178 180 177 182 196 193 197 209 216 198 189 236 177 196 208 234 247 224 203 284
350 346 345 341 338 340 339 331 328 325 321 318 314 309 190 217 227 255 215 207 231 225 208 115 175 185 199 182 197 189 187 197 210 211 192 202 203 211 197 224 193 211 264 274 272 274 324
348 349 346 346 349 340 336 332 329 328 324 322 310 181 208 187 217 217 217 212 208 201 153 183 168 187 195 190 201 192 207 206 202 210 224 207 221 174 210 218 237 167 229 269 299 256 246
344 343 342 339 339 339 336 335 332 330 327 329 295 234 131 121 176 208 221 229 220 261 201 216 219 207 196 190 200 196 190 209 206 203 226 195 237 179 205 231 208 272 31 203 213 264 266
340 336 334 334 335 338 338 339 335 332 331 333 232 223 76 166 188 204 215 214 217 199 246 237 187 204 239 183 203 197 190 176 206 196 214 236 230 184 171 208 212 197 230 235 294 297 283
337 338 337 334 338 340 341 340 336 334 333 286 286 218 102 177 196 205 218 221 357 185 193 213 274 270 231 194 203 201 208 216 196 196 204 217 228 226 206 223 226 223 216 229 221 232 229
339 332 337 337 338 344 342 340 336 334 348 309 302 104 168 256 212 199 215 219 234 203 205 199 236 275 200 202 200 211 204 163 183 182 198 196 224 228 222 170 197 237 242 252 259 252 271
340 340 338 339 342 349 343 340 335 332 339 276 264 179 156 218 282 269 206 215 214 214 258 256 269 250 237 198 214 198 194 143 190 216 136 205 225 228 233 226 213 209 230 231 244 247 244
343 343 340 340 345 351 345 341 337 334 338 267 223 85 6 186 210 228 236 222 217 208 228 221 227 243 227 221 196 185 191 145 167 140 203 218 226 242 237 252 235 237 220 231 239 246 256
343 342 341 344 347 350 344 341 344 340 332 258 305 316 212 292 244 218 182 212 219 211 212 209 239 216 219 242 263 167 179 182 181 173 190 215 238 266 247 240 244 232 235 234 233 236 249
340 338 339 346 347 347 341 342 352 357 332 318 32 238 279 134 204 216 205 200 211 173 189 286 227 222 215 176 348 15 348 50 120 180 187 188 230 221 245 229 238 233 243 244 248 253 260
340 337 337 343 348 348 341 346 357 9 350 321 7 287 266 216 235 219 232 220 210 191 211 162 213 243 60 315 240 228 210 166 186 164 265 195 214 228 294 168 218 238 223 237 242 243 239
321 337 344 347 345 345 341 344 351 2 351 303 341 298 298 262 301 207 217 219 200 179 194 202 108 2 288 229 206 176 178 177 175 186 211 250 233 223 239 222 248 134 51 341 266 233 18
343 342 342 340 337 337 331 346 348 359 353 298 320 316 284 297 144 2 236 244 208 203 170 150 136 311 241 244 218 210 195 206 182 169 217 213 248 270 225 267 268 65 27 344 277 186 12
341 339 337 338 333 328 336 343 344 354 353 311 339 333 275 278 69 312 278 354 310 263 209 145 49 183 239 211 214 210 200 347 218 210 171 197 233 236 233 248 223 20 350 330 223 26 344
334 337 338 337 334 331 340 346 357 353 352 317 41 353 322 306 72 356 15 351 219 267 226 75 207 189 200 227 242 171 266 148 257 35 203 214 224 213 242 250 235 356 97 314 7 347 352
327 333 335 338 334 330 343 13 4 355 348 328 238 154 312 268 20 335 354 13 343 17 323 36 24 47 26 280 223 59 199 185 261 216 164 243 348 347 359 40 85 63 72 48 6 6 2